SB KEPS @ AMSAT $ORB24355.1
2Line Orbital Elements 24355.AMSAT
QST de W1STR
AMSAT Orbital Elements for Amateur Satellites in TLE Format
From Orbital Analysis Office
New England Sci-Tech STEM Education Center
Natick, MA December 20, 2024
To all radio amateurs
These element sets describe the orbits of various satellites
in use by the amateur radio community. For details see:
www.amsat.org/keplerian-elements-formats/
A daily update of element sets is available at:
www.amsat.org/tle/daily-bulletin.txt
or without bulletin text:
www.amsat.org/tle/dailytle.txt
AO-07
1 07530U 74089B 24354.53394037 -.00000039 00000-0 47121-4 0 9997
2 07530 101.9901 350.9954 0012397 90.4936 31.3127 12.53683919292261
UO-11
1 14781U 84021B 24354.48883907 .00002528 00000-0 27922-3 0 9993
2 14781 97.7319 318.6477 0007739 173.0966 187.0359 14.88278816176036
AO-27
1 22825U 93061C 24354.74151032 .00000255 00000-0 11496-3 0 9995
2 22825 98.7641 49.2287 0007395 254.0907 105.9461 14.30683999629419
FO-29
1 24278U 96046B 24354.48217055 .00000053 00000-0 86968-4 0 9997
2 24278 98.5886 264.8849 0350867 68.4164 295.3978 13.53226183399499
NOAA-15
1 25338U 98030A 24354.80359851 .00000309 00000-0 14513-3 0 9997
2 25338 98.5526 17.9315 0010988 137.8874 222.3153 14.26829391383904
GO-32
1 25397U 98043D 24354.50725095 .00000219 00000-0 11508-3 0 9991
2 25397 98.9489 324.2569 0001483 28.8647 331.2613 14.24214067373796
ISS
1 25544U 98067A 24354.78715486 .00013667 00000-0 24028-3 0 9996
2 25544 51.6389 115.8117 0007806 357.7173 156.9527 15.50767798487337
NO-44
1 26931U 01043C 24354.58020970 .00000322 00000-0 15208-3 0 9994
2 26931 67.0494 212.4894 0006623 260.4206 99.6147 14.31544635212489
SO-50
1 27607U 02058C 24354.31299141 .00002658 00000-0 36079-3 0 9994
2 27607 64.5553 11.8728 0035605 20.9366 339.3187 14.80531676183719
CO-55
1 27844U 03031E 24353.95405148 .00000826 00000-0 38095-3 0 9999
2 27844 98.6778 358.4746 0009199 334.7400 25.3328 14.23708249114074
CO-57
1 27848U 03031J 24353.96464290 .00000688 00000-0 32430-3 0 9990
2 27848 98.6805 358.6156 0009403 351.9616 8.1410 14.23085206113817
RS-22
1 27939U 03042A 24354.83555045 .00002367 00000-0 39046-3 0 9995
2 27939 98.3081 154.4232 0011455 188.6303 307.9569 14.71401953135561
NOAA-18
1 28654U 05018A 24354.75912719 .00000368 00000-0 21925-3 0 9997
2 28654 98.8602 70.0695 0013326 255.7751 104.1941 14.13456806 9472
CO-58
1 28895U 05043F 24354.35579854 .00003660 00000-0 62222-3 0 9990
2 28895 98.2242 130.9888 0015846 130.5513 229.7075 14.69666105 21638
CO-65
1 32785U 08021C 24354.49382219 .00008201 00000-0 64584-3 0 9993
2 32785 97.7713 319.0357 0012960 87.3885 272.8822 15.00995355903236
AAUSAT2
1 32788U 08021F 24354.71599835 .00054079 00000-0 14557-2 0 9993
2 32788 97.6061 337.9631 0001682 126.6473 233.4926 15.37675053906711
CO-66
1 32791U 08021J 24354.35674338 .00017339 00000-0 10262-2 0 9996
2 32791 97.7118 325.6549 0006850 52.1415 308.0433 15.11481535904411
RS-30
1 32953U 08025A 24354.81998081 .00000033 00000-0 16589-3 0 9997
2 32953 82.5035 334.0214 0020598 61.4137 298.9012 12.43155378752194
PRISM
1 33493U 09002B 24354.17262762 .00076068 00000-0 18173-2 0 9993
2 33493 98.1751 60.0799 0007535 324.0183 36.0553 15.41201416867296
NOAA-19
1 33591U 09005A 24354.80873924 .00000335 00000-0 20297-3 0 9998
2 33591 99.0236 52.3640 0014585 127.0495 233.2013 14.13233218817843
SRMSAT
1 37841U 11058D 24354.74358578 .00000578 00000-0 17101-3 0 9996
2 37841 19.9710 114.3116 0011788 335.6280 174.5933 14.11313434681025
RS-40
1 38735U 12041C 24354.52236191 .00000047 00000-0 26585-3 0 9991
2 38735 82.4767 54.3174 0017887 172.0826 188.0539 12.42622306562198
ZACUBE-1
1 39417U 13066B 24354.32860661 .00008011 00000-0 75225-3 0 9994
2 39417 97.7592 306.8871 0045029 267.1427 92.4638 14.93445237599172
Delfi-N3xt
1 39428U 13066N 24354.76172189 .00008352 00000-0 93957-3 0 9995
2 39428 97.8374 268.8480 0090259 203.8746 155.8270 14.83979913593736
GOMX-1
1 39430U 13066Q 24354.81195663 .00003432 00000-0 55092-3 0 9998
2 39430 97.7032 217.9113 0136421 22.1165 338.5848 14.66194349590221
LO-74
1 39440U 13066AA 24354.80818392 .00007422 00000-0 80061-3 0 9996
2 39440 97.8332 295.0909 0066846 27.3049 333.1655 14.87034606597087
AO-73
1 39444U 13066AE 24354.86198358 .00008797 00000-0 74247-3 0 9994
2 39444 97.7447 311.1785 0041260 241.5612 118.1450 14.97704336598437
DTUSAT-2
1 40030U 14033W 24354.36407735 .00010408 00000-0 76112-3 0 9994
2 40030 98.0359 312.6557 0008278 288.0256 72.0066 15.03791916570474
EO-80
1 40032U 14033Y 24354.32696465 .00010772 00000-0 78635-3 0 9998
2 40032 98.0230 312.5036 0007582 213.7842 146.2900 15.03848513570442
XW-2C
1 40906U 15049H 24354.79723078 .00129422 00000-0 96036-3 0 9996
2 40906 97.4534 19.4111 0003914 17.6540 342.4859 15.72472373513296
LILACSAT-2
1 40908U 15049K 24354.82261843 .00012914 00000-0 40847-3 0 9995
2 40908 97.5186 5.6492 0012673 59.4697 300.7794 15.32839083511867
IO-86
1 40931U 15052B 24337.09180034 .00002217 00000-0 20975-3 0 9992
2 40931 5.9986 232.5457 0013173 302.5393 57.3463 14.78392648496340
ChubuSat-2
1 41338U 16012B 24354.48056707 .00008811 00000-0 48865-3 0 9996
2 41338 31.0002 274.7814 0011036 300.2738 59.6808 15.12401516485632
ChubuSat-3
1 41339U 16012C 24354.85066077 .00006859 00000-0 39055-3 0 9990
2 41339 31.0068 272.4060 0011059 305.9065 54.0547 15.11358462485654
Horyu-4
1 41340U 16012D 24353.97955048 .00023820 00000-0 89174-3 0 9993
2 41340 30.9991 203.4150 0008534 56.6784 303.4674 15.26077051486308
Lapan A3
1 41603U 16040E 24354.82776675 .00004581 00000-0 17114-3 0 9996
2 41603 97.1388 0.4092 0012188 152.9887 207.1990 15.27773734471542
Pratham
1 41783U 16059A 24354.52728208 .00001441 00000-0 27064-3 0 9998
2 41783 97.8288 5.1941 0032666 149.9514 210.3573 14.65787111439685
CAS-2T
1 41847U 16066G 24354.79793960 .00001814 00000-0 27012-3 0 9990
2 41847 98.4415 64.6906 0348929 337.9662 20.6831 14.42563323426240
CAS-4B
1 42759U 17034B 24354.81146582 .00032801 00000-0 75590-3 0 9998
2 42759 43.0124 248.1577 0014775 182.4268 177.6519 15.41885401415915
CAS-4A
1 42761U 17034D 24354.79079657 .00032930 00000-0 75106-3 0 9992
2 42761 43.0161 246.3964 0015841 189.6161 170.4395 15.42175854415924
D-SAT
1 42794U 17036AF 24354.20655312 .00010533 00000-0 65145-3 0 9991
2 42794 97.4982 330.0185 0098778 237.8531 121.3084 15.05963510408517
TechnoSat
1 42829U 17042E 24354.55448390 .00005682 00000-0 46649-3 0 9998
2 42829 97.3852 165.6828 0013137 162.2876 197.8808 14.99498603404927
AO-91
1 43017U 17073E 24354.36933723 .00014118 00000-0 77951-3 0 9994
2 43017 97.5467 223.7427 0192145 31.6823 329.5796 14.99568227383353
S-Net D
1 43186U 18014G 24354.24760362 .00008000 00000-0 51453-3 0 9993
2 43186 97.5765 253.1289 0011832 93.2300 267.0282 15.08606945376361
S-Net B
1 43187U 18014H 24354.31743755 .00008101 00000-0 52101-3 0 9992
2 43187 97.5772 253.1603 0012607 89.2618 271.0055 15.08593932376373
S-Net A
1 43188U 18014J 24354.51381169 .00007772 00000-0 49979-3 0 9994
2 43188 97.5776 253.4837 0012509 89.2637 271.0025 15.08613763376408
S-Net C
1 43189U 18014K 24354.71746779 .00007147 00000-0 45997-3 0 9991
2 43189 97.5794 253.6686 0014159 82.5671 277.7166 15.08596082374984
Ten-Koh
1 43677U 18084G 24354.39572573 .00005635 00000-0 47302-3 0 9995
2 43677 98.0796 153.9829 0015005 121.1405 239.1291 14.98680487334439
PO-101
1 43678U 18084H 24354.81267472 .00003521 00000-0 31211-3 0 9996
2 43678 98.0874 158.6996 0009968 130.7166 229.4922 14.96883631334678
QO-100
1 43700U 18090A 24354.81758734 .00000152 00000-0 00000+0 0 9990
2 43700 0.0159 34.2400 0002629 273.9465 100.8361 1.00273690 22460
MinXSS-2
1 43758U 18099A 24354.44642513 .00019261 00000-0 96234-3 0 9997
2 43758 97.5293 54.7091 0014665 43.0723 317.1655 15.17414384330799
AO-95
1 43770U 18099N 24354.10391588 .00014227 00000-0 83175-3 0 9994
2 43770 97.5199 48.4680 0013326 90.0514 270.2243 15.11908275330440
RANGE-B
1 43772U 18099Q 24354.41610086 .00023326 00000-0 10861-2 0 9998
2 43772 97.4991 53.3480 0004038 357.0621 3.0589 15.19913933330753
RANGE-A
1 43773U 18099R 24354.58225783 .00005986 00000-0 41220-3 0 9999
2 43773 97.4757 42.0384 0013528 65.3433 294.9202 15.06153397330306
MOVE-II
1 43780U 18099Y 24354.72134999 .00043786 00000-0 13305-2 0 9993
2 43780 97.4942 57.7997 0004938 52.9623 307.2071 15.33916158331171
SNUSat 2
1 43782U 18099AA 24354.40281794 .00010566 00000-0 64987-3 0 9999
2 43782 97.4883 46.8050 0013955 34.3284 325.8844 15.10132150330475
SnugLite
1 43784U 18099AC 24354.10218465 .00014422 00000-0 83848-3 0 9995
2 43784 97.4696 45.8326 0004716 48.4336 311.7298 15.12171620330523
ITASat 1
1 43786U 18099AE 24354.58221594 .00008930 00000-0 56601-3 0 9990
2 43786 97.4842 46.9220 0016875 80.0359 280.2774 15.09043769330481
EAGLET 1
1 43790U 18099AJ 24354.40786908 .00006769 00000-0 46280-3 0 9991
2 43790 97.5043 47.1337 0014351 63.2812 296.9883 15.06368703330127
ESEO
1 43792U 18099AL 24354.59611861 .00002827 00000-0 22347-3 0 9997
2 43792 97.4814 42.7111 0009221 33.6267 326.5541 15.01396218330005
CSIM
1 43793U 18099AM 24354.56880414 .00045228 00000-0 13933-2 0 9999
2 43793 97.5098 59.5122 0008437 24.7864 335.3782 15.33449605330998
JO-97
1 43803U 18099AX 24354.12275996 .00016097 00000-0 87842-3 0 9999
2 43803 97.4946 49.2531 0009066 33.4147 326.7655 15.14395304330618
Suomi 100
1 43804U 18099AY 24354.10909658 .00014511 00000-0 82577-3 0 9996
2 43804 97.5011 48.9043 0014459 31.3714 328.8377 15.12864226330577
ISAT
1 43879U 18111D 24354.59283790 .00019192 00000-0 89354-3 0 9998
2 43879 97.6063 260.3568 0013650 78.7237 281.5531 15.19884655327484
UWE-4
1 43880U 18111E 24354.49158892 .00017852 00000-0 88333-3 0 9990
2 43880 97.5997 259.6849 0016665 88.1929 272.1212 15.17743247327454
Sparrow
1 43881U 18111F 24354.48900287 .00020786 00000-0 94652-3 0 9994
2 43881 97.6181 262.5711 0010643 109.6374 250.6010 15.20664990327543
Prox-1
1 44339U 19036A 24354.56184721 .00015274 00000-0 22402-2 0 9995
2 44339 23.9983 106.7748 0006658 279.7761 80.1983 14.73887626292550
